Погода в Полоцке

Погода в Полоцке : погода сейчас, прогноз погоды и архив. Всё, что Вы хотите узнать о погоде в Полоцке!

Хотите узнать прогноз погоды в Полоцке? Тогда Вам сюда: Погода в Полоцке

Поиск расширенной информации на нашем сайте:

Другие новости

Новости СМИ2

Главная страница сайта

Новости сайта

03.07.2017

Напоминаем, что на нашем специализированном сайте Метеоцентр.Азия вы можете получить высокодетализированные автоматические прогнозы погоды по пунктам России, СНГ и мира в авиационном формате (включающие направление и скорость ветра, видимость, явления погоды, количество и форму облачности, нижнюю и верхнюю границу облачности).


Погода в Полоцке - сегодня

Время (UTC), дата Ветер
(°,м/с) 
Видим.   Явления Облачность Т
(°С)
Тd
(°С)
f(%) Тe
(°С)
Pmin
(гПа)
dP
(гПа)
Po
(мм)
O2
(г/м3)
Тmin Tmax R s Состояние
почвы
21 13.10.18 тихо ()   3500 м  дымка  ясно 
+8.1 +7.8 98 +8  1031.1  0.2  761  296           
00 14.10.18 тихо ()   0400 м  туман  ясно 
+5.6 +5.6 100 +6  1031.3  761  300           
06 14.10.18 200 (Ю) 0200 м  туман  ясно 
+4.4 +4.4 100 +5  1031.4  0.2  761  301  +2.9         
09 14.10.18 240 (ЮЗ) 15000 м  {туман}  4/0 верхняя 
[Ci fib]
+14.9 +10.7 76 +18  1030.9  0.1  761  289           
12 14.10.18 250 (З) 15000 м  {туман}  3/0 верхняя 
[Ci fib]
+19.2 +8.9 51 +20  1029.4  -1.2  760  285           
15 14.10.18 170 (Ю) 15000 м    1/0 верхняя 
[Ci fib]
+17.1 +9.7 62 +20  1028.8  -0.8  760  286           
18 14.10.18 тихо ()   10 км    ясно 
+9.4 +8.4 93 +9  1029.1  -0.1  760  294    +20       
21 14.10.18 180 (Ю) 9000 м  дымка  ясно 
+6 +5.3 95 +7  1029.6  0.2  760  299           
00 15.10.18 180 (Ю) 0600 м  туман  ясно 
+3.8 +3.8 100 +5  1029.6  -0.1  760  301           
06 15.10.18 180 (Ю) 6000 м  дымка{туман}  ясно 
+3.7 +3.5 99 +5  1029.3  0.2  759  301  +1.3         
09 15.10.18 210 (ЮЗ) 20000 м    5/0 верхняя 
[Ci fib]
+14.7 +4.6 51 +15  1028.9  0.3  760  290           
12 15.10.18 160 (Ю) 20000 м    4/0 верхняя 
[Ci ing]
+18.1 +3 36 +19  1027.8  0.9  759  286           
15 15.10.18 170 (Ю) 15000 м    8/0 верхняя 
[Ci ing]
+15.5 +6.2 54 +17  1027.2  -0.7  758  288           
18 15.10.18 180 (Ю) 10 км    5/0 верхняя 
[Ci fib]
+10.5 +5.9 73 +12  1027  -0.5  758  293    +18.5       
21 15.10.18 тихо ()   10 км    ясно 
+6.5 +5.4 93 +7  1026.9  -0.3  758  297           
00 16.10.18 170 (Ю) 10 км    ясно 
+6.2 +5.1 93 +7  1026.9  758  298           
06 16.10.18 170 (Ю) 10 км    8/0 верхняя 
[Ci sp]
+6.2 +3.8 85 +7  1026.4  757  298  +5.3         
09 16.10.18 170 (Ю) 15000 м    5/0 средняя, верхняя 
[Ac cast|Ci fib]
+14.9 +5.9 55 +16  1025.3  -0.5  757  288           
12 16.10.18 200 (Ю) 20000 м    5/0 средняя, верхняя 
[Ac trans|Ci sp]
+19.7 +4.6 37 +21  1024.6  -0.5  757  284           
15 16.10.18 тихо ()   10 км    4/0 верхняя 
[Ci ing]
+16.8 +8.9 60 +17  1024.3  -0.4  756  286           
18 16.10.18 200 (Ю) 10 км    ясно 
+9.6 +6.5 81 +11  1025  0.2  757  293    +20       
21 16.10.18 тихо ()   10 км    ясно 
+6.4 +5.3 93 +6  1025.4  0.3  757  297           
00 17.10.18 тихо ()   2700 м  дымка  ясно 
+3.6 +3.1 97 +4  1025.4  0.2  757  300           
06 17.10.18 тихо ()   6000 м  дымка  ясно 
+3.1 +2.1 93 +3  1025.7  0.2  757  301  +1.2         
09 17.10.18 200 (Ю) 10 км    ясно 
+14.3 +8.1 66 +16  1025.4  0.4  757  289           
Время (UTC), дата Ветер
(°,м/с) 
Видим.   Явления Облачность Т
(°С)
Тd
(°С)
f(%) Тe
(°С)
Pmin
(гПа)
dP
(гПа)
Po
(мм)
O2
(г/м3)
Тmin Tmax R s Состояние
почвы

Для получения пояснительной информации подведите курсор к названию столбца.

ПОГОДА в Полоцке - архив

Всё, что Вы хотите узнать о погоде в Полоцке - удобно и подробно!

Выберите нужную дату (начиная с 1 января 2015* года) и нажмите кнопку "Найти".
Будут отображены архивные сводки погоды по пункту Полоцк, начиная с указанной даты.


Отображать данные в формате CSV (для использования в таблицах Excel)


Внимание! Наш архив погоды предназначен исключительно для личного некоммерческого использования в познавательных целях. Если Вам необходимы официальные справки о состоянии погоды (для производственных, юридических, коммерческих и т.п. целей), обращайтесь в органы Росгидромета.

*Примечание: данная дата относится к архиву по метеостанциям СССР (Россия, СНГ, Балтия).
Архив по метеостанциям Зарубежной Европы и Азии (кроме Китая) хранится 10 дней, по другим регионам земного шара (Китай, Африка, Америка, Австралия, Океания) - 1 день.

Полоцк - район местоположения метеостанции


Название, широта, долгота, высота метеостанции:
Полоцк 55.5°ш. 28.8°д. 133 м над ур. моря [Беларусь]

Дополнительная информация

В oтличие oт бoльшинства пoгoдных сайтoв мы публикуем пoдрoбную метеoинфoрмацию в детальнoм прoфессиoнальнoм фoрмате.

Характеристики температуры и влажнoсти вoздуха измеряются на высoте 2 м в тени вдали oт зданий и деревьев.
Скoрoсть ветра измеряется на высoте 10 м (на урoвне рoста челoвека скoрoсть ветра ниже в 1.5-2 раза). Если метеoстанция нахoдится в гoрoде или в лесу, тo скoрoсть ветра занижена на 2-4 м/с пo сравнению с oткрытым местoм. Скoрoсть ветра над акватoриями крупных рек и oзёр, а также на вершинах хoлмoв на 2-5 м/с выше, чем в oбычных услoвиях.
Атмoсфернoе давление в разных тoчках местнoсти мoжет значительнo oтличаться oт давления на метеoстанции, в зависимoсти oт услoвий рельефа (при пoдъёме на 10 м давление пoнижается примернo на 1 мм рт.ст.).